Preview of NWS' New Version of Forecast
This preview is not operational and should not be used for support decisions.

Regional Weather Roundup (RWR)

Issued by National Weather Service (NWS)

                            
000
ASUS43 KTOP 180159
RWRKS 

WEATHER ROUNDUP FOR KANSAS
NATIONAL WEATHER SERVICE GOODLAND KS
900 PM CDT SAT AUG 17 2019

NOTE:  "FAIR" INDICATES FEW OR NO CLOUDS BELOW 12,000 FEET WITH NO
SIGNIFICANT WEATHER AND/OR OBSTRUCTIONS TO VISIBILITY.

KSZ001>006-013>018-027>032-041>047-180300-
NORTHWEST KANSAS
  
CITY           SKY/WX    TMP DP  RH WIND       PRES   REMARKS
GOODLAND       CLOUDY    69  57  65 E9        29.82S                  
HAYS           CLEAR     81  74  79 N8        29.75R                  
HILL CITY      LGT RAIN  80  61  52 N14G23    29.71F                  
RUSSELL        CLEAR     82  73  74 SE10      29.70S                  
$$

KSZ061>065-074>080-084>089-180300-
SOUTHWEST KANSAS
  
CITY           SKY/WX    TMP DP  RH WIND       PRES   REMARKS
DODGE CITY     CLEAR     85  64  49 SE10      29.71S                  
GARDEN CITY    CLEAR     83  61  47 E7        29.71F                  
GREAT BEND     CLEAR     83  75  77 E12       29.69F                  
LIBERAL        CLEAR     88  55  32 E7        29.71R                  
$$

KSZ066>073-081>083-090>101-180300-
SOUTHEAST KANSAS
  
CITY           SKY/WX    TMP DP  RH WIND       PRES   REMARKS
CHANUTE        CLEAR     83  75  77 S7        29.78R                  
COFFEYVILLE    CLEAR     82  74  76 SE9       29.75S                  
HUTCHINSON     CLEAR     84  75  74 SE15G21   29.71F                  
MEDICINE LODGE   N/A     88  71  57 SE8       29.68R                  
NEWTON         CLEAR     80  76  87 SE13      29.74F                  
PARSONS        CLEAR     82  75  79 SE6       29.78R                  
WICHITA INTL   PTCLDY    86  74  67 SE14G23   29.72S                  
WICHITA JABRA  CLEAR     82  77  84 SE9       29.73S                  
WICHITA MCCONL CLEAR     85  72  65 E13       29.74R                  
WINFIELD       CLEAR     84  73  69 SE9       29.75R                  
$$

KSZ007>012-019>026-033>040-048>060-102>105-180300-
NORTHEAST KANSAS
  
CITY           SKY/WX    TMP DP  RH WIND       PRES   REMARKS
CONCORDIA      CLEAR     79  74  84 SE7       29.71F                  
EMPORIA        PTCLDY    77  75  93 SE7       29.76S                  
LAWRENCE       CLEAR     79  73  82 E6        29.77R                  
MANHATTAN      CLEAR     82  74  76 S6        29.73S                  
OLATHE IND     CLEAR     77  72  84 SE10      29.79F                  
OLATHE EXE     CLEAR     76  72  87 SE9       29.79F                  
SALINA         CLEAR     84  74  71 SE7       29.71F                  
TOPEKA BILLARD CLEAR     79  70  74 SE5       29.76R                  
TOPEKA FORBES  CLEAR     79  71  76 SE7       29.77R                  
$$